Year,Month,Day,Hour,Minute,Value (Times are PST for temperature in C)
2013,10,23,00,00,4.90
2013,10,23,00,01,4.80
2013,10,23,00,02,4.80
2013,10,23,00,03,4.80
2013,10,23,00,04,4.80
2013,10,23,00,05,4.80
2013,10,23,00,06,4.80
2013,10,23,00,07,4.80
2013,10,23,00,08,4.80
2013,10,23,00,09,4.80
2013,10,23,00,10,4.80
2013,10,23,00,11,4.80
2013,10,23,00,12,4.80
2013,10,23,00,13,4.80
2013,10,23,00,14,4.80
2013,10,23,00,15,4.80
2013,10,23,00,16,4.70
2013,10,23,00,17,4.70
2013,10,23,00,18,4.70
2013,10,23,00,19,4.70
2013,10,23,00,20,4.70
2013,10,23,00,21,4.70
2013,10,23,00,22,4.70
2013,10,23,00,23,4.70
2013,10,23,00,24,4.70
2013,10,23,00,25,4.60
2013,10,23,00,26,4.60
2013,10,23,00,27,4.60
2013,10,23,00,28,4.60
2013,10,23,00,29,4.60
2013,10,23,00,30,4.60
2013,10,23,00,31,4.60
2013,10,23,00,32,4.50
2013,10,23,00,33,4.50
2013,10,23,00,34,4.50
2013,10,23,00,35,4.50
2013,10,23,00,36,4.50
2013,10,23,00,37,4.50
2013,10,23,00,38,4.50
2013,10,23,00,39,4.50
2013,10,23,00,40,4.50
2013,10,23,00,41,4.50
2013,10,23,00,42,4.50
2013,10,23,00,43,4.50
2013,10,23,00,44,4.50
2013,10,23,00,45,4.60
2013,10,23,00,46,4.60
2013,10,23,00,47,4.60
2013,10,23,00,48,4.60
2013,10,23,00,49,4.50
2013,10,23,00,50,4.60
2013,10,23,00,51,4.60
2013,10,23,00,52,4.60
2013,10,23,00,53,4.60
2013,10,23,00,54,4.60
2013,10,23,00,55,4.50
2013,10,23,00,56,4.50
2013,10,23,00,57,4.50
2013,10,23,00,58,4.50
2013,10,23,00,59,4.50
2013,10,23,01,00,4.50
2013,10,23,01,01,4.50
2013,10,23,01,02,4.50
2013,10,23,01,03,4.50
2013,10,23,01,04,4.40
2013,10,23,01,05,4.40
2013,10,23,01,06,4.40
2013,10,23,01,07,4.40
2013,10,23,01,08,4.40
2013,10,23,01,09,4.40
2013,10,23,01,10,4.40
2013,10,23,01,11,4.30
2013,10,23,01,12,4.30
2013,10,23,01,13,4.30
2013,10,23,01,14,4.30
2013,10,23,01,15,4.30
2013,10,23,01,16,4.20
2013,10,23,01,17,4.20
2013,10,23,01,18,4.20
2013,10,23,01,19,4.20
2013,10,23,01,20,4.20
2013,10,23,01,21,4.10
2013,10,23,01,22,4.20
2013,10,23,01,23,4.20
2013,10,23,01,24,4.20
2013,10,23,01,25,4.20
2013,10,23,01,26,4.20
2013,10,23,01,27,4.20
2013,10,23,01,28,4.20
2013,10,23,01,29,4.20
2013,10,23,01,30,4.20
2013,10,23,01,31,4.20
2013,10,23,01,32,4.20
2013,10,23,01,33,4.20
2013,10,23,01,34,4.20
2013,10,23,01,35,4.20
2013,10,23,01,36,4.20
2013,10,23,01,37,4.20
2013,10,23,01,38,4.20
2013,10,23,01,39,4.20
2013,10,23,01,40,4.20
2013,10,23,01,41,4.20
2013,10,23,01,42,4.20
2013,10,23,01,43,4.20
2013,10,23,01,44,4.20
2013,10,23,01,45,4.20
2013,10,23,01,46,4.20
2013,10,23,01,47,4.20
2013,10,23,01,48,4.20
2013,10,23,01,49,4.20
2013,10,23,01,50,4.20
2013,10,23,01,51,4.10
2013,10,23,01,52,4.10
2013,10,23,01,53,4.10
2013,10,23,01,54,4.10
2013,10,23,01,55,4.10
2013,10,23,01,56,4.10
2013,10,23,01,57,4.00
2013,10,23,01,58,4.00
2013,10,23,01,59,4.00
2013,10,23,02,00,4.00
2013,10,23,02,01,4.00
2013,10,23,02,02,4.00
2013,10,23,02,03,4.00
2013,10,23,02,04,4.00
2013,10,23,02,05,4.00
2013,10,23,02,06,4.00
2013,10,23,02,07,4.00
2013,10,23,02,08,4.10
2013,10,23,02,09,4.10
2013,10,23,02,10,4.10
2013,10,23,02,11,4.10
2013,10,23,02,12,4.10
2013,10,23,02,13,4.10
2013,10,23,02,14,4.10
2013,10,23,02,15,4.10
2013,10,23,02,16,4.10
2013,10,23,02,17,4.10
2013,10,23,02,18,4.10
2013,10,23,02,19,4.10
2013,10,23,02,20,4.10
2013,10,23,02,21,4.10
2013,10,23,02,22,4.10
2013,10,23,02,23,4.10
2013,10,23,02,24,4.00
2013,10,23,02,25,4.00
2013,10,23,02,26,4.00
2013,10,23,02,27,4.00
2013,10,23,02,28,4.00
2013,10,23,02,29,4.00
2013,10,23,02,30,4.00
2013,10,23,02,31,4.00
2013,10,23,02,32,4.00
2013,10,23,02,33,4.00
2013,10,23,02,34,4.00
2013,10,23,02,35,4.00
2013,10,23,02,36,4.00
2013,10,23,02,37,3.90
2013,10,23,02,38,3.90
2013,10,23,02,39,3.90
2013,10,23,02,40,3.90
2013,10,23,02,41,3.90
2013,10,23,02,42,3.90
2013,10,23,02,43,3.80
2013,10,23,02,44,3.80
2013,10,23,02,45,3.80
2013,10,23,02,46,3.80
2013,10,23,02,47,3.80
2013,10,23,02,48,3.80
2013,10,23,02,49,3.80
2013,10,23,02,50,3.80
2013,10,23,02,51,3.80
2013,10,23,02,52,3.80
2013,10,23,02,53,3.80
2013,10,23,02,54,3.70
2013,10,23,02,55,3.70
2013,10,23,02,56,3.80
2013,10,23,02,57,3.80
2013,10,23,02,58,3.80
2013,10,23,02,59,3.80
2013,10,23,03,00,3.80
2013,10,23,03,01,3.80
2013,10,23,03,02,3.80
2013,10,23,03,06,3.80
2013,10,23,03,07,3.80
2013,10,23,03,08,3.80
2013,10,23,03,09,3.80
2013,10,23,03,10,3.80
2013,10,23,03,11,3.80
2013,10,23,03,12,3.80
2013,10,23,03,13,3.80
2013,10,23,03,14,3.80
2013,10,23,03,15,3.80
2013,10,23,03,16,3.80
2013,10,23,03,17,3.80
2013,10,23,03,18,3.80
2013,10,23,03,19,3.80
2013,10,23,03,20,3.80
2013,10,23,03,21,3.80
2013,10,23,03,22,3.80
2013,10,23,03,23,3.80
2013,10,23,03,24,3.80
2013,10,23,03,25,3.80
2013,10,23,03,26,3.80
2013,10,23,03,27,3.80
2013,10,23,03,28,3.80
2013,10,23,03,29,3.80
2013,10,23,03,30,3.80
2013,10,23,03,31,3.80
2013,10,23,03,32,3.80
2013,10,23,03,33,3.80
2013,10,23,03,34,3.80
2013,10,23,03,35,3.80
2013,10,23,03,36,3.80
2013,10,23,03,37,3.80
2013,10,23,03,38,3.80
2013,10,23,03,39,3.80
2013,10,23,03,40,3.80
2013,10,23,03,41,3.80
2013,10,23,03,42,3.80
2013,10,23,03,43,3.80
2013,10,23,03,44,3.80
2013,10,23,03,45,3.80
2013,10,23,03,46,3.80
2013,10,23,03,47,3.80
2013,10,23,03,48,3.80
2013,10,23,03,49,3.80
2013,10,23,03,50,3.80
2013,10,23,03,51,3.80
2013,10,23,03,52,3.80
2013,10,23,03,53,3.80
2013,10,23,03,54,3.80
2013,10,23,03,55,3.70
2013,10,23,03,56,3.70
2013,10,23,03,57,3.70
2013,10,23,03,58,3.70
2013,10,23,03,59,3.70
2013,10,23,04,00,3.70
2013,10,23,04,01,3.70
2013,10,23,04,02,3.60
2013,10,23,04,03,3.60
2013,10,23,04,04,3.60
2013,10,23,04,05,3.60
2013,10,23,04,06,3.50
2013,10,23,04,07,3.50
2013,10,23,04,08,3.50
2013,10,23,04,09,3.50
2013,10,23,04,10,3.50
2013,10,23,04,11,3.50
2013,10,23,04,12,3.60
2013,10,23,04,13,3.60
2013,10,23,04,14,3.60
2013,10,23,04,15,3.60
2013,10,23,04,16,3.60
2013,10,23,04,17,3.60
2013,10,23,04,18,3.60
2013,10,23,04,19,3.60
2013,10,23,04,20,3.60
2013,10,23,04,21,3.60
2013,10,23,04,22,3.60
2013,10,23,04,23,3.60
2013,10,23,04,24,3.60
2013,10,23,04,25,3.60
2013,10,23,04,26,3.60
2013,10,23,04,27,3.60
2013,10,23,04,28,3.60
2013,10,23,04,29,3.60
2013,10,23,04,30,3.60
2013,10,23,04,31,3.60
2013,10,23,04,32,3.60
2013,10,23,04,33,3.60
2013,10,23,04,34,3.60
2013,10,23,04,35,3.60
2013,10,23,04,36,3.60
2013,10,23,04,37,3.60
2013,10,23,04,38,3.60
2013,10,23,04,39,3.60
2013,10,23,04,40,3.60
2013,10,23,04,41,3.60
2013,10,23,04,42,3.60
2013,10,23,04,43,3.60
2013,10,23,04,44,3.60
2013,10,23,04,45,3.60
2013,10,23,04,46,3.60
2013,10,23,04,47,3.60
2013,10,23,04,48,3.60
2013,10,23,04,49,3.60
2013,10,23,04,50,3.60
2013,10,23,04,51,3.60
2013,10,23,04,52,3.60
2013,10,23,04,53,3.60
2013,10,23,04,54,3.50
2013,10,23,04,55,3.50
2013,10,23,04,56,3.50
2013,10,23,04,57,3.50
2013,10,23,04,58,3.50
2013,10,23,04,59,3.50
2013,10,23,05,00,3.50
2013,10,23,05,01,3.50
2013,10,23,05,02,3.50
2013,10,23,05,03,3.50
2013,10,23,05,04,3.50
2013,10,23,05,05,3.50
2013,10,23,05,06,3.50
2013,10,23,05,07,3.50
2013,10,23,05,08,3.50
2013,10,23,05,09,3.50
2013,10,23,05,10,3.50
2013,10,23,05,11,3.50
2013,10,23,05,12,3.40
2013,10,23,05,13,3.40
2013,10,23,05,14,3.40
2013,10,23,05,15,3.40
2013,10,23,05,16,3.40
2013,10,23,05,17,3.40
2013,10,23,05,18,3.40
2013,10,23,05,19,3.30
2013,10,23,05,20,3.30
2013,10,23,05,21,3.30
2013,10,23,05,22,3.40
2013,10,23,05,23,3.30
2013,10,23,05,24,3.40
2013,10,23,05,25,3.40
2013,10,23,05,26,3.40
2013,10,23,05,27,3.40
2013,10,23,05,28,3.40
2013,10,23,05,29,3.40
2013,10,23,05,30,3.40
2013,10,23,05,31,3.40
2013,10,23,05,32,3.40
2013,10,23,05,33,3.40
2013,10,23,05,34,3.40
2013,10,23,05,35,3.40
2013,10,23,05,36,3.40
2013,10,23,05,37,3.40
2013,10,23,05,38,3.40
2013,10,23,05,39,3.40
2013,10,23,05,40,3.40
2013,10,23,05,41,3.40
2013,10,23,05,42,3.40
2013,10,23,05,43,3.30
2013,10,23,05,44,3.30
2013,10,23,05,45,3.30
2013,10,23,05,46,3.30
2013,10,23,05,47,3.30
2013,10,23,05,48,3.20
2013,10,23,05,49,3.20
2013,10,23,05,50,3.20
2013,10,23,05,51,3.20
2013,10,23,05,52,3.20
2013,10,23,05,53,3.20
2013,10,23,05,54,3.20
2013,10,23,05,55,3.30
2013,10,23,05,56,3.30
2013,10,23,05,57,3.30
2013,10,23,05,58,3.30
2013,10,23,05,59,3.30
2013,10,23,06,00,3.30
2013,10,23,06,01,3.30
2013,10,23,06,02,3.30
2013,10,23,06,03,3.30
2013,10,23,06,04,3.30
2013,10,23,06,05,3.30
2013,10,23,06,06,3.30
2013,10,23,06,07,3.30
2013,10,23,06,08,3.30
2013,10,23,06,09,3.30
2013,10,23,06,10,3.30
2013,10,23,06,11,3.20
2013,10,23,06,12,3.20
2013,10,23,06,13,3.20
2013,10,23,06,14,3.20
2013,10,23,06,15,3.20
2013,10,23,06,16,3.20
2013,10,23,06,17,3.20
2013,10,23,06,18,3.20
2013,10,23,06,19,3.20
2013,10,23,06,20,3.20
2013,10,23,06,21,3.20
2013,10,23,06,22,3.20
2013,10,23,06,23,3.30
2013,10,23,06,24,3.30
2013,10,23,06,25,3.30
2013,10,23,06,26,3.30
2013,10,23,06,27,3.30
2013,10,23,06,28,3.30
2013,10,23,06,29,3.20
2013,10,23,06,30,3.20
2013,10,23,06,31,3.20
2013,10,23,06,32,3.20
2013,10,23,06,33,3.20
2013,10,23,06,34,3.20
2013,10,23,06,35,3.20
2013,10,23,06,36,3.20
2013,10,23,06,37,3.20
2013,10,23,06,38,3.20
2013,10,23,06,39,3.20
2013,10,23,06,40,3.20
2013,10,23,06,41,3.30
2013,10,23,06,42,3.30
2013,10,23,06,43,3.30
2013,10,23,06,44,3.30
2013,10,23,06,45,3.20
2013,10,23,06,46,3.20
2013,10,23,06,47,3.20
2013,10,23,06,48,3.20
2013,10,23,06,49,3.20
2013,10,23,06,50,3.20
2013,10,23,06,51,3.20
2013,10,23,06,52,3.20
2013,10,23,06,53,3.20
2013,10,23,06,54,3.20
2013,10,23,06,55,3.20
2013,10,23,06,56,3.20
2013,10,23,06,57,3.30
2013,10,23,06,58,3.30
2013,10,23,06,59,3.30
2013,10,23,07,00,3.30
2013,10,23,07,01,3.30
2013,10,23,07,02,3.30
2013,10,23,07,03,3.30
2013,10,23,07,04,3.30
2013,10,23,07,05,3.30
2013,10,23,07,06,3.30
2013,10,23,07,07,3.30
2013,10,23,07,08,3.30
2013,10,23,07,09,3.30
2013,10,23,07,10,3.30
2013,10,23,07,11,3.30
2013,10,23,07,12,3.30
2013,10,23,07,13,3.30
2013,10,23,07,14,3.20
2013,10,23,07,15,3.20
2013,10,23,07,16,3.20
2013,10,23,07,17,3.20
2013,10,23,07,18,3.20
2013,10,23,07,19,3.20
2013,10,23,07,20,3.20
2013,10,23,07,21,3.20
2013,10,23,07,22,3.20
2013,10,23,07,23,3.20
2013,10,23,07,24,3.20
2013,10,23,07,25,3.20
2013,10,23,07,26,3.20
2013,10,23,07,27,3.20
2013,10,23,07,28,3.20
2013,10,23,07,29,3.20
2013,10,23,07,30,3.20
2013,10,23,07,31,3.20
2013,10,23,07,32,3.20
2013,10,23,07,33,3.20
2013,10,23,07,34,3.20
2013,10,23,07,35,3.20
2013,10,23,07,36,3.20
2013,10,23,07,37,3.20
2013,10,23,07,38,3.20
2013,10,23,07,39,3.20
2013,10,23,07,40,3.20
2013,10,23,07,41,3.20
2013,10,23,07,42,3.30
2013,10,23,07,43,3.30
2013,10,23,07,44,3.30
2013,10,23,07,45,3.30
2013,10,23,07,46,3.20
2013,10,23,07,47,3.20
2013,10,23,07,48,3.20
2013,10,23,07,49,3.20
2013,10,23,07,50,3.20
2013,10,23,07,51,3.10
2013,10,23,07,52,3.10
2013,10,23,07,53,3.10
2013,10,23,07,54,3.10
2013,10,23,07,55,3.00
2013,10,23,07,56,3.00
2013,10,23,07,57,3.00
2013,10,23,07,58,3.10
2013,10,23,07,59,3.10
2013,10,23,08,00,3.10
2013,10,23,08,01,3.00
2013,10,23,08,02,3.00
2013,10,23,08,03,3.00
2013,10,23,08,04,3.00
2013,10,23,08,05,3.00
2013,10,23,08,06,3.00
2013,10,23,08,07,3.10
2013,10,23,08,08,3.10
2013,10,23,08,09,3.10
2013,10,23,08,10,3.10
2013,10,23,08,11,3.10
2013,10,23,08,12,3.10
2013,10,23,08,13,3.20
2013,10,23,08,14,3.20
2013,10,23,08,15,3.20
2013,10,23,08,16,3.20
2013,10,23,08,17,3.20
2013,10,23,08,18,3.20
2013,10,23,08,19,3.20
2013,10,23,08,20,3.20
2013,10,23,08,21,3.20
2013,10,23,08,22,3.20
2013,10,23,08,23,3.30
2013,10,23,08,24,3.30
2013,10,23,08,25,3.30
2013,10,23,08,26,3.30
2013,10,23,08,27,3.40
2013,10,23,08,28,3.40
2013,10,23,08,29,3.40
2013,10,23,08,30,3.40
2013,10,23,08,31,3.50
2013,10,23,08,32,3.50
2013,10,23,08,33,3.50
2013,10,23,08,34,3.60
2013,10,23,08,35,3.60
2013,10,23,08,36,3.60
2013,10,23,08,37,3.60
2013,10,23,08,38,3.70
2013,10,23,08,39,3.70
2013,10,23,08,40,3.70
2013,10,23,08,41,3.70
2013,10,23,08,42,3.80
2013,10,23,08,43,3.80
2013,10,23,08,44,3.80
2013,10,23,08,45,3.80
2013,10,23,08,46,3.90
2013,10,23,08,47,3.90
2013,10,23,08,48,3.90
2013,10,23,08,49,4.00
2013,10,23,08,50,4.00
2013,10,23,08,51,4.10
2013,10,23,08,52,4.10
2013,10,23,08,53,4.10
2013,10,23,08,54,4.10
2013,10,23,08,55,4.10
2013,10,23,08,56,4.20
2013,10,23,08,57,4.20
2013,10,23,08,58,4.20
2013,10,23,08,59,4.30
2013,10,23,09,00,4.30
2013,10,23,09,01,4.30
2013,10,23,09,02,4.40
2013,10,23,09,03,4.40
2013,10,23,09,04,4.40
2013,10,23,09,05,4.50
2013,10,23,09,06,4.50
2013,10,23,09,07,4.60
2013,10,23,09,08,4.60
2013,10,23,09,09,4.70
2013,10,23,09,10,4.70
2013,10,23,09,11,4.70
2013,10,23,09,12,4.80
2013,10,23,09,13,4.80
2013,10,23,09,14,4.90
2013,10,23,09,15,4.90
2013,10,23,09,16,5.00
2013,10,23,09,17,5.10
2013,10,23,09,18,5.10
2013,10,23,09,19,5.20
2013,10,23,09,20,5.30
2013,10,23,09,21,5.40
2013,10,23,09,22,5.60
2013,10,23,09,23,5.70
2013,10,23,09,24,5.80
2013,10,23,09,25,5.90
2013,10,23,09,26,6.10
2013,10,23,09,27,6.20
2013,10,23,09,28,6.30
2013,10,23,09,29,6.40
2013,10,23,09,30,6.50
2013,10,23,09,31,6.60
2013,10,23,09,32,6.70
2013,10,23,09,33,6.80
2013,10,23,09,34,6.90
2013,10,23,09,35,6.90
2013,10,23,09,36,7.00
2013,10,23,09,37,7.00
2013,10,23,09,38,7.10
2013,10,23,09,39,7.10
2013,10,23,09,40,7.20
2013,10,23,09,41,7.20
2013,10,23,09,42,7.20
2013,10,23,09,43,7.20
2013,10,23,09,44,7.20
2013,10,23,09,45,7.20
2013,10,23,09,46,7.20
2013,10,23,09,47,7.30
2013,10,23,09,48,7.30
2013,10,23,09,49,7.20
2013,10,23,09,50,7.20
2013,10,23,09,51,7.20
2013,10,23,09,52,7.20
2013,10,23,09,53,7.30
2013,10,23,09,54,7.30
2013,10,23,09,55,7.30
2013,10,23,09,56,7.30
2013,10,23,09,57,7.40
2013,10,23,09,58,7.40
2013,10,23,09,59,7.50
2013,10,23,10,00,7.50
2013,10,23,10,01,7.60
2013,10,23,10,02,7.70
2013,10,23,10,03,7.80
2013,10,23,10,04,8.00
2013,10,23,10,05,8.10
2013,10,23,10,06,8.20
2013,10,23,10,07,8.30
2013,10,23,10,08,8.50
2013,10,23,10,09,8.60
2013,10,23,10,10,8.80
2013,10,23,10,11,9.00
2013,10,23,10,12,9.10
2013,10,23,10,13,9.30
2013,10,23,10,14,9.50
2013,10,23,10,15,9.70
2013,10,23,10,16,9.90
2013,10,23,10,17,10.00
2013,10,23,10,18,10.20
2013,10,23,10,19,10.30
2013,10,23,10,20,10.30
2013,10,23,10,21,10.40
2013,10,23,10,22,10.40
2013,10,23,10,23,10.50
2013,10,23,10,24,10.50
2013,10,23,10,25,10.60
2013,10,23,10,26,10.60
2013,10,23,10,27,10.70
2013,10,23,10,28,10.80
2013,10,23,10,29,10.80
2013,10,23,10,30,10.90
2013,10,23,10,31,11.00
2013,10,23,10,32,11.10
2013,10,23,10,33,11.10
2013,10,23,10,34,11.20
2013,10,23,10,35,11.20
2013,10,23,10,36,11.30
2013,10,23,10,37,11.30
2013,10,23,10,38,11.40
2013,10,23,10,39,11.50
2013,10,23,10,40,11.60
2013,10,23,10,41,11.60
2013,10,23,10,42,11.70
2013,10,23,10,43,11.80
2013,10,23,10,44,11.80
2013,10,23,10,45,11.90
2013,10,23,10,46,12.10
2013,10,23,10,47,12.20
2013,10,23,10,48,12.30
2013,10,23,10,49,12.40
2013,10,23,10,50,12.40
2013,10,23,10,51,12.50
2013,10,23,10,52,12.50
2013,10,23,10,53,12.60
2013,10,23,10,54,12.60
2013,10,23,10,55,12.60
2013,10,23,10,56,12.60
2013,10,23,10,57,12.60
2013,10,23,10,58,12.70
2013,10,23,10,59,12.70
2013,10,23,11,00,12.80
2013,10,23,11,01,12.80
2013,10,23,11,02,13.00
2013,10,23,11,03,13.10
2013,10,23,11,04,13.30
2013,10,23,11,05,13.40
2013,10,23,11,06,13.50
2013,10,23,11,07,13.60
2013,10,23,11,08,13.70
2013,10,23,11,09,13.70
2013,10,23,11,10,13.60
2013,10,23,11,11,13.60
2013,10,23,11,12,13.60
2013,10,23,11,13,13.50
2013,10,23,11,14,13.40
2013,10,23,11,15,13.30
2013,10,23,11,16,13.20
2013,10,23,11,17,13.20
2013,10,23,11,18,13.10
2013,10,23,11,19,13.00
2013,10,23,11,20,13.00
2013,10,23,11,21,13.00
2013,10,23,11,22,12.90
2013,10,23,11,23,12.90
2013,10,23,11,24,12.90
2013,10,23,11,25,13.00
2013,10,23,11,26,13.00
2013,10,23,11,27,13.00
2013,10,23,11,28,13.10
2013,10,23,11,29,13.00
2013,10,23,11,30,13.00
2013,10,23,11,31,12.90
2013,10,23,11,32,12.90
2013,10,23,11,33,12.80
2013,10,23,11,34,12.80
2013,10,23,11,35,12.80
2013,10,23,11,36,12.80
2013,10,23,11,37,12.70
2013,10,23,11,38,12.70
2013,10,23,11,39,12.60
2013,10,23,11,40,12.60
2013,10,23,11,41,12.60
2013,10,23,11,42,12.60
2013,10,23,11,43,12.70
2013,10,23,11,44,12.70
2013,10,23,11,45,12.70
2013,10,23,11,46,12.70
2013,10,23,11,47,12.70
2013,10,23,11,48,12.70
2013,10,23,11,49,12.70
2013,10,23,11,50,12.70
2013,10,23,11,51,12.70
2013,10,23,11,52,12.70
2013,10,23,11,53,12.70
2013,10,23,11,54,12.70
2013,10,23,11,55,12.60
2013,10,23,11,56,12.60
2013,10,23,11,57,12.50
2013,10,23,11,58,12.50
2013,10,23,11,59,12.50
2013,10,23,12,00,12.50
2013,10,23,12,01,12.60
2013,10,23,12,02,12.70
2013,10,23,12,03,12.70
2013,10,23,12,04,12.70
2013,10,23,12,05,12.80
2013,10,23,12,06,12.80
2013,10,23,12,07,12.80
2013,10,23,12,08,12.80
2013,10,23,12,09,12.90
2013,10,23,12,10,13.00
2013,10,23,12,11,13.10
2013,10,23,12,12,13.20
2013,10,23,12,13,13.30
2013,10,23,12,14,13.50
2013,10,23,12,15,13.60
2013,10,23,12,16,13.70
2013,10,23,12,17,13.80
2013,10,23,12,18,13.80
2013,10,23,12,19,13.80
2013,10,23,12,20,13.90
2013,10,23,12,21,13.90
2013,10,23,12,22,14.00
2013,10,23,12,23,14.00
2013,10,23,12,24,14.10
2013,10,23,12,25,14.10
2013,10,23,12,26,14.10
2013,10,23,12,27,14.20
2013,10,23,12,28,14.20
2013,10,23,12,29,14.30
2013,10,23,12,30,14.30
2013,10,23,12,31,14.40
2013,10,23,12,32,14.40
2013,10,23,12,33,14.40
2013,10,23,12,34,14.30
2013,10,23,12,35,14.30
2013,10,23,12,36,14.30
2013,10,23,12,37,14.40
2013,10,23,12,38,14.40
2013,10,23,12,39,14.50
2013,10,23,12,40,14.50
2013,10,23,12,41,14.60
2013,10,23,12,42,14.70
2013,10,23,12,43,14.70
2013,10,23,12,44,14.80
2013,10,23,12,45,14.90
2013,10,23,12,46,15.00
2013,10,23,12,47,15.00
2013,10,23,12,48,15.00
2013,10,23,12,49,15.00
2013,10,23,12,50,15.00
2013,10,23,12,51,15.00
2013,10,23,12,52,15.00
2013,10,23,12,53,15.00
2013,10,23,12,54,15.00
2013,10,23,12,55,15.00
2013,10,23,12,56,15.00
2013,10,23,12,57,15.00
2013,10,23,12,58,15.00
2013,10,23,12,59,15.10
2013,10,23,13,00,15.20
2013,10,23,13,01,15.30
2013,10,23,13,02,15.40
2013,10,23,13,03,15.40
2013,10,23,13,04,15.40
2013,10,23,13,05,15.50
2013,10,23,13,06,15.50
2013,10,23,13,07,15.60
2013,10,23,13,08,15.60
2013,10,23,13,09,15.60
2013,10,23,13,10,15.50
2013,10,23,13,11,15.50
2013,10,23,13,12,15.60
2013,10,23,13,13,15.60
2013,10,23,13,14,15.70
2013,10,23,13,15,15.80
2013,10,23,13,16,15.80
2013,10,23,13,17,15.90
2013,10,23,13,18,15.90
2013,10,23,13,19,15.90
2013,10,23,13,20,16.00
2013,10,23,13,21,16.00
2013,10,23,13,22,16.10
2013,10,23,13,23,16.10
2013,10,23,13,24,16.10
2013,10,23,13,25,16.10
2013,10,23,13,26,16.20
2013,10,23,13,27,16.20
2013,10,23,13,28,16.20
2013,10,23,13,29,16.20
2013,10,23,13,30,16.20
2013,10,23,13,31,16.30
2013,10,23,13,32,16.30
2013,10,23,13,33,16.20
2013,10,23,13,34,16.20
2013,10,23,13,35,16.10
2013,10,23,13,36,16.10
2013,10,23,13,37,16.10
2013,10,23,13,38,16.10
2013,10,23,13,39,16.10
2013,10,23,13,40,16.00
2013,10,23,13,41,16.00
2013,10,23,13,42,15.90
2013,10,23,13,43,15.90
2013,10,23,13,44,15.90
2013,10,23,13,45,15.80
2013,10,23,13,46,15.80
2013,10,23,13,47,15.80
2013,10,23,13,48,15.80
2013,10,23,13,49,15.70
2013,10,23,13,50,15.70
2013,10,23,13,51,15.70
2013,10,23,13,52,15.70
2013,10,23,13,53,15.70
2013,10,23,13,54,15.60
2013,10,23,13,55,15.60
2013,10,23,13,56,15.50
2013,10,23,13,57,15.50
2013,10,23,13,58,15.50
2013,10,23,13,59,15.50
2013,10,23,14,00,15.50
2013,10,23,14,01,15.60
2013,10,23,14,02,15.60
2013,10,23,14,03,15.60
2013,10,23,14,04,15.60
2013,10,23,14,05,15.60
2013,10,23,14,06,15.60
2013,10,23,14,07,15.60
2013,10,23,14,08,15.70
2013,10,23,14,09,15.70
2013,10,23,14,10,15.80
2013,10,23,14,11,15.80
2013,10,23,14,12,15.80
2013,10,23,14,13,15.80
2013,10,23,14,14,15.80
2013,10,23,14,15,15.80
2013,10,23,14,16,15.80
2013,10,23,14,17,15.70
2013,10,23,14,18,15.80
2013,10,23,14,19,15.70
2013,10,23,14,20,15.70
2013,10,23,14,21,15.80
2013,10,23,14,22,15.80
2013,10,23,14,23,15.80
2013,10,23,14,24,15.80
2013,10,23,14,25,15.80
2013,10,23,14,26,15.70
2013,10,23,14,27,15.70
2013,10,23,14,28,15.70
2013,10,23,14,29,15.70
2013,10,23,14,30,15.70
2013,10,23,14,31,15.70
2013,10,23,14,32,15.70
2013,10,23,14,33,15.80
2013,10,23,14,34,15.80
2013,10,23,14,35,15.80
2013,10,23,14,36,15.80
2013,10,23,14,37,15.80
2013,10,23,14,38,15.80
2013,10,23,14,39,15.80
2013,10,23,14,40,15.80
2013,10,23,14,41,15.70
2013,10,23,14,42,15.70
2013,10,23,14,43,15.80
2013,10,23,14,44,15.80
2013,10,23,14,45,15.80
2013,10,23,14,46,15.80
2013,10,23,14,47,15.80
2013,10,23,14,48,15.90
2013,10,23,14,49,15.90
2013,10,23,14,50,16.00
2013,10,23,14,51,16.00
2013,10,23,14,52,16.10
2013,10,23,14,53,16.10
2013,10,23,14,54,16.10
2013,10,23,14,55,16.10
2013,10,23,14,56,16.10
2013,10,23,14,57,16.10
2013,10,23,14,58,16.10
2013,10,23,14,59,16.00
2013,10,23,15,00,16.00
2013,10,23,15,01,16.00
2013,10,23,15,02,16.00
2013,10,23,15,03,16.00
2013,10,23,15,04,16.00
2013,10,23,15,05,16.00
2013,10,23,15,06,16.00
2013,10,23,15,07,16.00
2013,10,23,15,08,15.90
2013,10,23,15,09,15.90
2013,10,23,15,10,15.90
2013,10,23,15,11,15.90
2013,10,23,15,12,15.80
2013,10,23,15,13,15.80
2013,10,23,15,14,15.70
2013,10,23,15,15,15.70
2013,10,23,15,16,15.70
2013,10,23,15,17,15.70
2013,10,23,15,18,15.70
2013,10,23,15,19,15.70
2013,10,23,15,20,15.70
2013,10,23,15,21,15.70
2013,10,23,15,22,15.70
2013,10,23,15,23,15.70
2013,10,23,15,24,15.70
2013,10,23,15,25,15.80
2013,10,23,15,26,15.70
2013,10,23,15,27,15.70
2013,10,23,15,28,15.70
2013,10,23,15,29,15.70
2013,10,23,15,30,15.70
2013,10,23,15,31,15.70
2013,10,23,15,32,15.70
2013,10,23,15,33,15.70
2013,10,23,15,34,15.70
2013,10,23,15,35,15.70
2013,10,23,15,36,15.70
2013,10,23,15,37,15.70
2013,10,23,15,38,15.70
2013,10,23,15,39,15.60
2013,10,23,15,40,15.60
2013,10,23,15,41,15.60
2013,10,23,15,42,15.60
2013,10,23,15,43,15.50
2013,10,23,15,44,15.50
2013,10,23,15,45,15.50
2013,10,23,15,46,15.50
2013,10,23,15,47,15.50
2013,10,23,15,48,15.50
2013,10,23,15,49,15.50
2013,10,23,15,50,15.40
2013,10,23,15,51,15.40
2013,10,23,15,52,15.40
2013,10,23,15,53,15.40
2013,10,23,15,54,15.40
2013,10,23,15,55,15.40
2013,10,23,15,56,15.40
2013,10,23,15,57,15.40
2013,10,23,15,58,15.40
2013,10,23,15,59,15.50
2013,10,23,16,00,15.50
2013,10,23,16,01,15.50
2013,10,23,16,02,15.60
2013,10,23,16,03,15.60
2013,10,23,16,04,15.50
2013,10,23,16,05,15.50
2013,10,23,16,06,15.50
2013,10,23,16,07,15.60
2013,10,23,16,08,15.60
2013,10,23,16,09,15.60
2013,10,23,16,10,15.60
2013,10,23,16,11,15.60
2013,10,23,16,12,15.70
2013,10,23,16,13,15.70
2013,10,23,16,14,15.70
2013,10,23,16,15,15.70
2013,10,23,16,16,15.80
2013,10,23,16,17,15.80
2013,10,23,16,18,15.80
2013,10,23,16,19,15.80
2013,10,23,16,20,15.90
2013,10,23,16,21,16.00
2013,10,23,16,22,16.10
2013,10,23,16,23,16.20
2013,10,23,16,24,16.30
2013,10,23,16,25,16.40
2013,10,23,16,26,16.50
2013,10,23,16,27,16.50
2013,10,23,16,28,16.50
2013,10,23,16,29,16.50
2013,10,23,16,30,16.50
2013,10,23,16,31,16.40
2013,10,23,16,32,16.40
2013,10,23,16,33,16.30
2013,10,23,16,34,16.30
2013,10,23,16,35,16.20
2013,10,23,16,36,16.20
2013,10,23,16,37,16.20
2013,10,23,16,38,16.10
2013,10,23,16,39,16.10
2013,10,23,16,40,16.00
2013,10,23,16,41,16.00
2013,10,23,16,42,16.00
2013,10,23,16,43,16.00
2013,10,23,16,44,15.90
2013,10,23,16,45,15.90
2013,10,23,16,46,15.90
2013,10,23,16,47,15.90
2013,10,23,16,48,15.80
2013,10,23,16,49,15.80
2013,10,23,16,50,15.80
2013,10,23,16,51,15.70
2013,10,23,16,52,15.70
2013,10,23,16,53,15.70
2013,10,23,16,54,15.70
2013,10,23,16,55,15.70
2013,10,23,16,56,15.80
2013,10,23,16,57,15.80
2013,10,23,16,58,15.80
2013,10,23,16,59,15.90
2013,10,23,17,00,15.90
2013,10,23,17,01,16.00
2013,10,23,17,02,16.00
2013,10,23,17,03,16.00
2013,10,23,17,04,16.00
2013,10,23,17,05,16.00
2013,10,23,17,06,15.90
2013,10,23,17,07,15.90
2013,10,23,17,08,15.90
2013,10,23,17,09,15.80
2013,10,23,17,10,15.80
2013,10,23,17,11,15.70
2013,10,23,17,12,15.60
2013,10,23,17,13,15.40
2013,10,23,17,14,15.30
2013,10,23,17,15,15.20
2013,10,23,17,16,15.10
2013,10,23,17,17,15.00
2013,10,23,17,18,15.00
2013,10,23,17,19,14.90
2013,10,23,17,20,14.80
2013,10,23,17,21,14.70
2013,10,23,17,22,14.50
2013,10,23,17,23,14.50
2013,10,23,17,24,14.40
2013,10,23,17,25,14.30
2013,10,23,17,26,14.20
2013,10,23,17,27,14.10
2013,10,23,17,28,14.00
2013,10,23,17,29,13.90
2013,10,23,17,30,13.80
2013,10,23,17,31,13.70
2013,10,23,17,32,13.60
2013,10,23,17,33,13.50
2013,10,23,17,34,13.40
2013,10,23,17,35,13.40
2013,10,23,17,36,13.30
2013,10,23,17,37,13.20
2013,10,23,17,38,13.10
2013,10,23,17,39,13.10
2013,10,23,17,40,13.00
2013,10,23,17,41,12.90
2013,10,23,17,42,12.80
2013,10,23,17,43,12.70
2013,10,23,17,44,12.70
2013,10,23,17,45,12.60
2013,10,23,17,46,12.50
2013,10,23,17,47,12.50
2013,10,23,17,48,12.40
2013,10,23,17,49,12.30